Powrót do katalogu

STARLINK-11457

AktywnyŁącznośćVLEO
NORAD 62919·PAYLOAD·🇺🇸 United States

Wystrzelony Feb 8, 2025 z Cape Canaveral Space Force Station

Loading…

Następne Przeloty (najbliższe 24 godziny)

TLE

ŚwieżeSource: CelesTrak SupGP

Epoka: Sep 15, 2026, 03:18 UTC

1 62919C 25027N   26258.13798611  .00042368  00000+0  32889-3 0  2585
2 62919  43.0004 285.3876 0001560 250.5101  23.1160 15.70830797    16

Śledź STARLINK-11457 w czasie rzeczywistym z AllMySat

Download on the App Store